STARLINK-11411, 62018

Orbit data source: Space-Track

STARLINK-11411, 62018 is a payload satellite owned by SpaceX/Seattle (US) in LEO that was launched on Mon, 18 Nov 2024 UTC via an FALCON 9 launch vehicle from the Air Force Western Test Range (AFWTR). Payload-class satellites include a variety of spacecraft equipped with specific instruments for various scientific and technological missions. These include communications satellites like Starlink; space stations such as the ISS; scientific satellites like the Hubble; Earth observation satellites from companies like Planet Labs, Umbra, and HawkEye 360; GPS; miniature CubeSats for education and research; and military/defense satellites.

Loading next visibility...
Identifier
62018, 2024-213L
Orbit
LEO
Country
Flag of USUS
Related business
Manufacturer
SpaceX/Seattle
Mission
Operational Commercial Communications
Bus & Motor
STARLINK V2MD, Unknown motor
Mass
960 kg wet, ~910 kg dry
Launch date (UTC)
2024-11-18 (1 year ago)
Launch vehicle
FALCON 9
Launch site
Air Force Western Test Range (AFWTR)
Object type
Payload
Rocket body
Debris
Shape & HBR
Box + 2 Pan, 18.1 m
Radar Cross Section
36.964 m², Large (>1 m²)

Expand to show TLE details & history
Last TLE update: 13 hours ago

TLE from 13 hours ago
0 STARLINK-11411
1 62018U 24213L   26127.25563863  .00140322  00000-0  11414-2 0  9990
2 62018  53.1582 112.5537 0001401  44.8100 315.3031 15.69756645 84114
Epoch: 2026-05-07T06:08Z
TLE epoch observation values (Epoch: 2026-05-07T06:08:07.177Z)
Latitude
-0.00002°
Longitude
155.41938°
Altitude
359.837 km
Speed
7.695 km/s
True Right ascension
07h 30m 12s
True Declination
0° 00' 00"
Sunlit
Object was in daylight at epoch
Visualization orbit readout
Latitude
Unknown
Longitude
Unknown
Altitude
Unknown
Speed
Unknown
Apparent Right ascension
Unknown
Apparent Declination
Unknown
Sunlit
N/A
Visualization observer readout
Local Sidereal Time
02:40:38
Azimuth
Unknown
Elevation
Unknown
Doppler factor
Unknown
Orbital elements
Apogee altitude
360.798 km
Perigee altitude
358.91 km
Semi-major axis
6,737.991 km
Eccentricity
0.00014
Inclination
53.1582°
RAAN
112.5537°
Arg. of periapsis
44.81°
True anomaly
315.29181°
Mean anomaly
315.3031°
Eccentric anomaly
315.29745°
Mean motion
3.92417 °/min
Orbital period
91.74 mins
BSTAR
0.0011414
Loading maneuver chart data...
Computing Atmospheric mass density...
Loading historical data...
Loading historical data...
Loading historical data...
Loading historical data...
Loading historical data...
Loading historical data...
Loading historical data...

Documentation

Showing up to 5 results
|